Flag for Russia Weather past 2 weeks in Surgut, Russia

Now
3 °F

Scattered clouds.


Feels Like: -8 °F
Forecast: -5 / 12 °F
Wind: 6 mph from Southeast

Location: Surgut Airport

Current Time: Mar 6, 2015 at 7:12:53 PM

Latest Report: Mar 6, 2015 at 6:30 PM


Visibility: 4 mi

Pressure: 30.80 "Hg

Humidity: 60%

Dew point: -8 °F

Location of SurgutLocation

Historic Weather in Surgut — Graph

°F

Surgut temperature yesterday

Maximum temperature yesterday: 14 °F (at 12:00 AM)
Minimum temperature yesterday: -11 °F (at 11:30 PM)
Average temperature yesterday: -2 °F

Past Weeks' High & Low Weather Summary

 TemperatureHumidityPressure
High32 °F (Feb 24, 11:30 AM)100% (Feb 24, 8:00 AM)30.83 "Hg (Feb 24, 8:00 AM)
Low-17 °F (Mar 6, 4:30 AM)51% (Mar 6, 4:30 PM)29.62 "Hg (Feb 22, 3:00 AM)
Average18 °F83%30.15 "Hg
* Reported Feb 19 6:00 PM — Mar 6 6:00 PM, Surgut, Weather by CustomWeather, © 2015

Note: Actual official high and low records may vary slightly from our data, if they occured in-between our weather recording intervals... More about our weather records

Advertising

Surgut weather history for previous 24 hours

 ConditionsComfort  
Time TempWeatherWind HumidityBarometerVisibility
6:00 PM
Fri, Mar 6
5 °FScattered clouds.6 mph55%30.80 "Hg4 mi
5:30 PM5 °FScattered clouds.6 mph55%30.80 "Hg4 mi
5:00 PM9 °FScattered clouds.6 mph51%30.80 "Hg4 mi
4:30 PM9 °FScattered clouds.6 mph51%30.80 "Hg4 mi
4:00 PM10 °FScattered clouds.6 mph52%30.80 "Hg4 mi
3:30 PM10 °FScattered clouds.6 mph56%30.80 "Hg4 mi
3:00 PM10 °FSunny.6 mph56%30.80 "Hg4 mi
2:30 PM10 °FSunny.6 mph61%30.80 "Hg4 mi
2:00 PM9 °FSunny.6 mph66%30.80 "Hg4 mi
1:30 PM7 °FPassing clouds.6 mph72%30.80 "Hg4 mi
1:00 PM7 °FPassing clouds.6 mph72%30.83 "Hg4 mi
12:30 PM7 °FPassing clouds.6 mph72%30.83 "Hg4 mi
12:00 PM5 °FSunny.3 mph72%30.83 "Hg4 mi
11:30 AM3 °FSunny.6 mph72%30.83 "Hg4 mi
11:00 AM1 °FSunny.6 mph71%30.83 "Hg4 mi
10:30 AM0 °FPassing clouds.6 mph78%30.83 "Hg4 mi
10:00 AM-2 °FPassing clouds.3 mph77%30.83 "Hg4 mi
9:30 AM-6 °FPassing clouds.6 mph84%30.83 "Hg4 mi
9:00 AM-8 °FScattered clouds.6 mph77%30.83 "Hg4 mi
8:30 AM-11 °FScattered clouds.8 mph70%30.83 "Hg4 mi
8:00 AM-13 °FScattered clouds.8 mph76%30.83 "Hg4 mi
7:30 AM-17 °FPassing clouds.8 mph76%30.80 "Hg4 mi
7:00 AM-17 °FPassing clouds.8 mph76%30.80 "Hg4 mi
6:30 AM-17 °FPassing clouds.6 mph76%30.80 "Hg4 mi
6:00 AM-17 °FPassing clouds.8 mph76%30.80 "Hg4 mi
5:30 AM-17 °FPassing clouds.6 mph76%30.80 "Hg4 mi
5:00 AM-17 °FPassing clouds.8 mph76%30.80 "Hg4 mi
4:30 AM-17 °FPassing clouds.6 mph76%30.80 "Hg4 mi
4:00 AM-15 °FPassing clouds.8 mph76%30.80 "Hg4 mi
3:30 AM-15 °FPassing clouds.8 mph76%30.77 "Hg4 mi
2:30 AM-13 °FPassing clouds.8 mph76%30.77 "Hg4 mi
1:30 AM-15 °FPassing clouds.6 mph76%30.77 "Hg4 mi
1:00 AM-13 °FPassing clouds.6 mph76%30.77 "Hg4 mi
12:30 AM-13 °FPassing clouds.3 mph76%30.77 "Hg4 mi
12:00 AM-11 °FClear.6 mph76%30.74 "Hg4 mi
11:30 PM
Thu, Mar 5
-11 °FClear.6 mph76%30.74 "Hg4 mi
11:00 PM-9 °FClear.8 mph70%30.74 "Hg4 mi
10:30 PM-9 °FClear.8 mph70%30.74 "Hg4 mi
10:00 PM-9 °FClear.6 mph77%30.74 "Hg4 mi
9:30 PM-8 °FClear.6 mph70%30.74 "Hg4 mi
9:00 PM-8 °FClear.6 mph70%30.72 "Hg4 mi
8:30 PM-8 °FClear.3 mph70%30.72 "Hg4 mi
8:00 PM-6 °FClear.3 mph70%30.72 "Hg4 mi
7:30 PM-4 °FClear.6 mph71%30.72 "Hg4 mi
7:00 PM-4 °FClear.6 mph71%30.72 "Hg4 mi
Weather by CustomWeather, © 2015

See weather overviewHow to use our weather pages